Orbital Elements at Epoch 2459200.5 (2020-Dec-17.0) TDB
Reference: JPL 26 (heliocentric ecliptic J2000)
Element | Value | Uncertainty (1-sigma) | Units |
e | .07650197935476181 | 4.1641e-08 | |
a | 2.283585664443184 | 6.4936e-09 | au |
q | 2.108886841087121 | 9.5777e-08 | au |
i | 3.882327334969792 | 3.6509e-06 | deg |
node | 43.68859557546426 | 5.7743e-05 | deg |
peri | 137.4034277988041 | 6.1388e-05 | deg |
M | 31.76019045895498 | 2.0851e-05 | deg |
tp | 2459089.299949051877 (2020-Aug-27.79994905) | 7.2946e-05 | TDB |
period | 1260.446419333014 3.45 | 5.3763e-06 1.472e-08 | d yr |
n | .2856130926933808 | 1.2183e-09 | deg/d |
Q | 2.458284487799246 | 6.9904e-09 | au |
|
| | Orbit Determination Parameters
Additional Information
|